,,Stat6,,Stat2,,Stat8,,Stat9,,Stat10,,Wind1,,Wind1,
time,status,PA1M_AVG,status,PR1M_SUM,status,RH1M_AVG,status,SR1M_AVG,status,TA1M_AVG,status,W1dAve1m,status,W1sAve1m,
2007-01-25, 07:00:01,VALID,920.171,VALID,0,VALID,100,VALID,0.0849042,VALID,19.6834,VALID,311,VALID,0.957589,
2007-01-25, 07:01:00,VALID,920.162,VALID,0,VALID,100,VALID,0.0339617,VALID,19.6605,VALID,321,VALID,1.0877,
2007-01-25, 07:02:00,VALID,920.157,VALID,0,VALID,100,VALID,0.0509425,VALID,19.6344,VALID,328,VALID,1.02474,
2007-01-25, 07:03:00,VALID,920.149,VALID,0,VALID,100,VALID,0.0509425,VALID,19.6022,VALID,339,VALID,0.671113,
2007-01-25, 07:04:00,VALID,920.145,VALID,0,VALID,100,VALID,-0.0509425,VALID,19.5942,VALID,333,VALID,0.498884,
2007-01-25, 07:05:00,VALID,920.145,VALID,0,VALID,100,VALID,-0.101885,VALID,19.6079,VALID,307,VALID,0.705256,
2007-01-25, 07:06:00,VALID,920.152,VALID,0,VALID,100,VALID,-0.0849042,VALID,19.5818,VALID,350,VALID,0.804874,
2007-01-25, 07:07:01,VALID,920.163,VALID,0,VALID,100,VALID,-0.101885,VALID,19.5562,VALID,354,VALID,0.894259,
2007-01-25, 07:08:00,VALID,920.165,VALID,0,VALID,100,VALID,-0.0849042,VALID,19.5495,VALID,343,VALID,0.896984,
2007-01-25, 07:09:00,VALID,920.164,VALID,0,VALID,100,VALID,-0.0849042,VALID,19.5726,VALID,331,VALID,0.737216,
2007-01-25, 07:10:01,VALID,920.145,VALID,0,VALID,100,VALID,-0.0849042,VALID,19.5721,VALID,325,VALID,0.504084,
2007-01-25, 07:11:00,VALID,920.138,VALID,0,VALID,100,VALID,-0.0849042,VALID,19.5917,VALID,316,VALID,0.427641,
2007-01-25, 07:45:01,VALID,919.951,VALID,0,VALID,100,VALID,0,VALID,19.5781,VALID,36,VALID,0.713477,
2007-01-25, 07:46:01,VALID,919.944,VALID,0,VALID,100,VALID,0.0169808,VALID,19.584,VALID,46,VALID,0.612282,
2007-01-25, 07:47:01,VALID,919.919,VALID,0,VALID,100,VALID,0.0509425,VALID,19.5773,VALID,50,VALID,0.638263,
2007-01-25, 07:48:01,VALID,919.905,VALID,0,VALID,100,VALID,0.0339617,VALID,19.5741,VALID,43,VALID,0.778906,
2007-01-25, 07:49:00,VALID,919.901,VALID,0.2,VALID,100,VALID,0.0169808,VALID,19.5776,VALID,26,VALID,0.658249,
2007-01-25, 07:50:00,VALID,919.879,VALID,0,VALID,100,VALID,0,VALID,19.584,VALID,24,VALID,1.04992,
2007-01-25, 07:51:00,VALID,919.881,VALID,0,VALID,100,VALID,0,VALID,19.5935,VALID,16,VALID,1.06593,
2007-01-25, 07:52:00,VALID,919.882,VALID,0,VALID,100,VALID,0,VALID,19.6193,VALID,6,VALID,1.13021,
2007-01-25, 07:53:01,VALID,919.889,VALID,0,VALID,100,VALID,0.0339617,VALID,19.6811,VALID,343,VALID,0.902539,
2007-01-25, 07:54:00,VALID,919.885,VALID,0,VALID,100,VALID,0,VALID,19.7127,VALID,325,VALID,0.638542,
2007-01-25, 07:55:00,VALID,919.888,VALID,0,VALID,100,VALID,0.0169808,VALID,19.739,VALID,326,VALID,0.879794,
2007-01-25, 07:56:00,VALID,919.877,VALID,0,VALID,100,VALID,0.0169808,VALID,19.732,VALID,322,VALID,0.573117,
2007-01-25, 07:57:01,VALID,919.891,VALID,0,VALID,100,VALID,0,VALID,19.7288,VALID,322,VALID,0.208031,
2007-01-25, 07:58:01,VALID,919.884,VALID,0,VALID,100,VALID,0.0169808,VALID,19.7355,VALID,322,VALID,0.113009,
2007-01-25, 07:59:01,VALID,919.896,VALID,0,VALID,100,VALID,0.0169808,VALID,19.7253,VALID,357,VALID,0.510243,
2007-01-25, 08:00:01,VALID,919.896,VALID,0,VALID,100,VALID,0.0169808,VALID,19.7161,VALID,2,VALID,0.407393,
2007-01-25, 08:01:00,VALID,919.887,VALID,0,VALID,100,VALID,0.0339617,VALID,19.7062,VALID,3,VALID,0.407703,
2007-01-25, 08:02:01,VALID,919.873,VALID,0,VALID,100,VALID,0.0339617,VALID,19.6997,VALID,31,VALID,0.617898,
2007-01-25, 08:03:00,VALID,919.881,VALID,0,VALID,100,VALID,0.0169808,VALID,19.6968,VALID,56,VALID,0.624455,
2007-01-25, 08:04:00,VALID,919.878,VALID,0,VALID,100,VALID,0.0509425,VALID,19.6806,VALID,57,VALID,0.59809,
2007-01-25, 08:05:01,VALID,919.871,VALID,0,VALID,100,VALID,0.0169808,VALID,19.6675,VALID,57,VALID,0.580556,
2007-01-25, 08:06:00,VALID,919.862,VALID,0,VALID,100,VALID,0,VALID,19.655,VALID,57,VALID,0.542578,
2007-01-25, 08:07:01,VALID,919.832,VALID,0,VALID,100,VALID,0.0169808,VALID,19.6523,VALID,57,VALID,0.612424,
2007-01-25, 08:08:01,VALID,919.823,VALID,0,VALID,100,VALID,0,VALID,19.6322,VALID,57,VALID,0.744913,
2007-01-25, 08:09:01,VALID,919.818,VALID,0,VALID,100,VALID,0,VALID,19.626,VALID,57,VALID,0.992374,
2007-01-25, 08:10:01,VALID,919.797,VALID,0,VALID,100,VALID,0.0169808,VALID,19.6066,VALID,51,VALID,0.95957,
2007-01-25, 08:11:00,VALID,919.78,VALID,0,VALID,100,VALID,0,VALID,19.587,VALID,48,VALID,1.06195,
2007-01-25, 08:12:01,VALID,919.76,VALID,0,VALID,100,VALID,0,VALID,19.5751,VALID,45,VALID,1.14082,
2007-01-25, 08:13:00,VALID,919.747,VALID,0,VALID,100,VALID,0.0339617,VALID,19.5711,VALID,44,VALID,1.0559,
2007-01-25, 08:14:00,VALID,919.744,VALID,0,VALID,100,VALID,0.0339617,VALID,19.5709,VALID,36,VALID,0.819404,
2007-01-25, 08:15:01,VALID,919.748,VALID,0,VALID,100,VALID,0.0169808,VALID,19.5751,VALID,36,VALID,0.814317,
2007-01-25, 08:16:00,VALID,919.747,VALID,0,VALID,100,VALID,0,VALID,19.5714,VALID,43,VALID,0.296689,
2007-01-25, 08:17:00,VALID,919.761,VALID,0,VALID,100,VALID,0,VALID,19.5783,VALID,43,VALID,0.507631,
2007-01-25, 08:18:01,VALID,919.774,VALID,0,VALID,100,VALID,0,VALID,19.5743,VALID,43,VALID,0.626302,
2007-01-25, 08:19:00,VALID,919.778,VALID,0,VALID,100,VALID,0,VALID,19.5679,VALID,43,VALID,0.261161,
2007-01-25, 08:20:00,VALID,919.782,VALID,0,VALID,100,VALID,0.0169808,VALID,19.5684,VALID,43,VALID,0,
2007-01-25, 08:21:00,VALID,919.764,VALID,0,VALID,100,VALID,0.0509425,VALID,19.5517,VALID,43,VALID,0,
2007-01-25, 08:22:01,VALID,919.757,VALID,0,VALID,100,VALID,0,VALID,19.5517,VALID,43,VALID,0,
2007-01-25, 08:23:01,VALID,919.743,VALID,0,VALID,100,VALID,0.0169808,VALID,19.5649,VALID,43,VALID,0,
